Location: Marsån
(66.4167°N, 22.2833°E)
Time: 07:31:48
(UTC+00:00)

IRS-1A Rocket - Pass Details

Date: 24 February 2024
Orbit: 851 x 930 km, 99.0° (Epoch: 21 April)

Event Time Altitude Azimuth Distance (km) Brightness Sun altitude
Exits shadow 18:55:06 27° 168° (SSE) 1,638 5.3 -21.3°
Maximum altitude 18:58:20 76° 250° (WSW) 921 4.4 -21.6°
Drops below altitude 10° 19:04:07 10° 336° (NNW) 2,589 7.4 -22.1°
Sets 19:06:34 0° 339° (NNW) 3,545 8.2 -22.3°
